Weather History for Pendleton, OR

Change the Weather History Date:

Sunday, July 7, 2013

  Actual Average Record
Temperature  
Mean Temperature 74 °F 71 °F  
Max Temperature 93 °F 86 °F 104 °F (1908)
Min Temperature 55 °F 56 °F 38 °F (1893)
Degree Days  
Heating Degree Days 0 1  
Month to date heating degree days 0 7  
Since 1 June heating degree days 80 90  
Since 1 July heating degree days 0 7  
Cooling Degree Days 9 6  
Month to date cooling degree days 91 39  
Year to date cooling degree days 217 141  
Since 1 June cooling degree days 186 118  
Growing Degree Days 23 (Base 50)    
Moisture  
Dew Point 42 °F    
Average Humidity 41    
Maximum Humidity 67    
Minimum Humidity 14    
Precipitation  
Precipitation T in 0.01 in 0.23 in (1963)
Month to date precipitation T 0.09  
Year to date precipitation 4.91 7.48  
Snow  
Snow 0.00 in 0.00 in 0.00 in (2002)
Month to date snowfall 0.0 0.0  
Year to date snowfall 0.2 7.7  
Since 1 July snowfall 0.0 0.0  
Snow Depth 0.00 in    
Sea Level Pressure  
Sea Level Pressure 29.77 in    
Wind  
Wind Speed 7 mph (West)    
Max Wind Speed 17 mph    
Max Gust Speed 23 mph    
Visibility 10 miles    
Events      
T = Trace of Precipitation, MM = Missing Value Source: NWS Daily Summary

Daily Weather History Graph

Daily Weather History Graph

Search for Another Location

Airport:

Trip Planner

Search our weather history database for the weather conditions in past years. The results will help you decide how hot, cold, wet, or windy it might be!

Date:

Astronomy

Jul. 07, 2013 Rise Set
Actual Time 5:13 AM PDT 8:46 PM PDT
Civil Twilight 4:36 AM PDT 9:23 PM PDT
Nautical Twilight 3:46 AM PDT 10:13 PM PDT
Astronomical Twilight 2:41 AM PDT 11:18 PM PDT
Moon 4:57 AM PDT (7/7) 8:09 PM PDT (7/7)
Length of Visible Light 16h 47m
Length of Day
15h 32m
Waning Crescent, 0% of the Moon is Illuminated
Jul 7
Waning Crescent
Jul 8
New
Jul 15
First Quarter
Jul 22
Full
Jul 29
Last Quarter

Hourly Weather History & Observations

Time (PDT) Temp. Dew Point Humidity Pressure Visibility Wind Dir Wind Speed Gust Speed Precip Events Conditions
12:53 AM 64.0 °F 44.1 °F 48% 29.77 in 10.0 mi SSE 10.4 mph - N/A   Clear
1:53 AM 61.0 °F 44.1 °F 54% 29.78 in 10.0 mi SSE 9.2 mph - N/A   Clear
2:53 AM 61.0 °F 44.1 °F 54% 29.78 in 10.0 mi SSE 10.4 mph - N/A   Clear
3:53 AM 60.1 °F 45.0 °F 57% 29.79 in 10.0 mi South 6.9 mph - N/A   Clear
4:53 AM 59.0 °F 45.0 °F 60% 29.79 in 10.0 mi SSE 5.8 mph - N/A   Clear
5:53 AM 57.0 °F 46.0 °F 67% 29.82 in 10.0 mi ESE 6.9 mph - N/A   Clear
6:53 AM 61.0 °F 46.9 °F 60% 29.83 in 10.0 mi SE 5.8 mph - N/A   Clear
7:53 AM 68.0 °F 48.0 °F 49% 29.83 in 10.0 mi SE 3.5 mph - N/A   Clear
8:53 AM 72.0 °F 48.0 °F 43% 29.83 in 10.0 mi Calm Calm - N/A   Clear
9:53 AM 78.1 °F 48.0 °F 35% 29.82 in 10.0 mi Variable 3.5 mph - N/A   Clear
10:53 AM 82.0 °F 46.9 °F 29% 29.81 in 10.0 mi Variable 5.8 mph - N/A   Clear
11:53 AM 84.9 °F 46.9 °F 27% 29.79 in 10.0 mi Variable 3.5 mph - N/A   Clear
12:53 PM 87.1 °F 46.0 °F 24% 29.78 in 10.0 mi NNE 5.8 mph - N/A   Clear
1:53 PM 89.1 °F 43.0 °F 20% 29.76 in 10.0 mi West 6.9 mph - N/A   Clear
2:53 PM 91.0 °F 43.0 °F 19% 29.74 in 10.0 mi NW 9.2 mph - N/A   Clear
3:53 PM 93.0 °F 37.9 °F 15% 29.73 in 10.0 mi NNW 8.1 mph 18.4 mph N/A   Clear
4:53 PM 91.9 °F 36.0 °F 14% 29.72 in 10.0 mi NNW 8.1 mph 17.3 mph N/A   Clear
5:53 PM 91.0 °F 36.0 °F 14% 29.71 in 10.0 mi WNW 12.7 mph 20.7 mph N/A   Clear
6:53 PM 89.1 °F 36.0 °F 15% 29.70 in 10.0 mi WNW 13.8 mph 19.6 mph N/A   Clear
7:53 PM 84.9 °F 37.0 °F 18% 29.71 in 10.0 mi NNW 9.2 mph - N/A   Clear
8:53 PM 79.0 °F 33.1 °F 19% 29.72 in 10.0 mi NNW 5.8 mph - N/A   Clear
9:53 PM 78.1 °F 34.0 °F 20% 29.74 in 10.0 mi Variable 3.5 mph - N/A   Clear
10:53 PM 73.9 °F 37.0 °F 26% 29.77 in 10.0 mi West 9.2 mph - N/A   Clear
11:53 PM 69.1 °F 44.1 °F 40% 29.79 in 10.0 mi WNW 8.1 mph - N/A   Clear